BSAT-1A

导读 | 豆包AI

BSAT-1A是由日本东京广播卫星系统公司(B-SAT)运营的广播卫星,于1997年4月16日成功发射,作为B-SAT公司首批运营卫星之一,主要用于向日本本土提供模拟电视信号广播服务,满足日本国内家庭的卫星电视接收需求,是日本早期广播卫星服务体系的重要组成部分,推动了日本卫星电视产业的初期发展,与后续BSAT系列卫星共同构建起日本全国性的卫星广播网络。

Basic Information
目录编号:
24769
目录名称:
BSAT-1A
国际标识:
1997-016B
轨道中心:
EARTH
卫星名称:
BSAT-1A
卫星全名:
--
卫星状态:
在轨 (已飞行10607 天)
发射日期:
1997-04-16 UTC
国别 :
日本 (JP)
星等 :
--
Orbit Information
数据来源 国际轨道数据 AOE轨道数据
星历时间 2026-05-01T06:01:51+0800
9小时前
查看轨道信息
2026-05-01T05:00:00+0800
10小时前
查看轨道信息
半长轴 42490.114km 42489.828km
偏心率 0.0004295 0.0004525
轨道倾角 11.067° 11.067°
近地点辐角 294.659° 293.969°
升交点赤经 41.329° 41.331°
平近点角 229.479° 214.844°
近地点 36093.727km 36092.464km
远地点 36130.227km 36130.918km
周期 1452.752分钟 1452.738分钟
每日圈数 0.991222 0.991232
Detailed Information
使用方式:
暂无
2D Orbit Map
3D Orbit Map
Orbit Altitude Analysis Chart
Orbit Inclination Analysis Chart
Orbit Comprehensive Analysis Chart
View Comprehensive Chart